Regional Weather Roundup
Issued by NWS Albany, NY

Home | Current Version | Previous Version | Text Only | Print | Product List | Glossary Off
Versions: 1 2 3 4 5 6 7 8 9 10 11 12 13 14 15 16 17 18 19 20 21 22 23 24 25 26 27 28 29 30 31 32 33 34 35 36 37 38 39 40 41 42 43 44 45 46 47 48 49 50

000
ASUS41 KALY 310110
RWRALY

NEW YORK STATE HOURLY WEATHER ROUNDUP
NATIONAL WEATHER SERVICE ALBANY NY
900 PM EDT THU JUL 30 2015

NOTE: "FAIR" INDICATES FEW OR NO CLOUDS BELOW 12,000 FEET WITH NO
SIGNIFICANT WEATHER AND/OR NO OBSTRUCTIONS TO VISIBILITY.

NYZ032-033-038>043-046>054-057>066-NYZ062>081-310200-
EAST


CITY           SKY/WX    TMP DP  RH WIND       PRES   REMARKS
ALBANY         PTCLDY    77  60  55 W6        29.81R
GLENS FALLS    CLEAR     70  65  84 SW3       29.79R
POUGHKEEPSIE   PTCLDY    77  72  84 CALM      29.80R
NEWBURGH       PTCLDY    77  75  94 W9        29.84R
MONTGOMERY     PTCLDY    76  74  93 W5        29.83R
WHITE PLAINS     N/A     76  74  93 CALM      29.83R FOG
ISLIP          CLOUDY    75  73  93 SW14      29.81S
NEW YORK CITY  MOCLDY    78  71  79 S8        29.82R
CENTRAL PARK   PTCLDY    77  72  84 VRB5      29.85R
$$

NYZ005>009-017-018-044>046-055-056-310200-
CENTRAL


CITY           SKY/WX    TMP DP  RH WIND       PRES   REMARKS
FULTON         PTCLDY    73  63  70 SW3       29.82R
SYRACUSE       PTCLDY    76  62  62 SW6       29.82R
ROME           MOCLDY    74  61  63 CALM      29.83R
ELMIRA         CLEAR     69  59  70 W6        29.89R
BINGHAMTON     CLEAR     72  58  61 NW6       29.91R
MONTICELLO     CLEAR     72  61  68 NW3       29.90S
$$

NYZ026>034-041>043-310200-
NORTH


CITY           SKY/WX    TMP DP  RH WIND       PRES   REMARKS
WATERTOWN      CLEAR     74  63  68 W8        29.78R
FORT DRUM      NOT AVBL
MASSENA        PTCLDY    75  61  61 SW12      29.72R
SARANAC LAKE   CLEAR     69  58  67 SW6       29.81R
PLATTSBURGH    CLEAR     73  62  68 CALM      29.72R
$$

NYZ001>004-010>016-019>021-310200-
WEST


CITY           SKY/WX    TMP DP  RH WIND       PRES   REMARKS
NIAGARA FALLS  PTCLDY    73  63  70 SW8       29.85R
BUFFALO        PTCLDY    75  63  66 W16       29.87R
DUNKIRK        MOCLDY    76  63  64 W14G21    29.90S
JAMESTOWN      CLEAR     70  55  60 W7        29.97S
WELLSVILLE     CLEAR     68  54  60 MISG      29.98R
ROCHESTER      PTCLDY    76  61  59 W10       29.85R
PENN YAN       PTCLDY    74  59  59 SW8       29.89R
$$

             KEY
       WCI = WIND CHILL INDEX
       VSB = VISIBILITY
       HX  = HEAT INDEX
$$



USA.gov is the U.S. government's official web portal to all federal, state and local government web resources and services.